[[{"header":{"parameterUnit":"m.s-1","parameterCategory":2,"la1":30.2991,"la2":30.254,"lo1":-89.0895,"lo2":-89.0444,"dy":0.0017,"dx":0.0017,"nx":28,"ny":28,"refTime":"2025-03-14T03:00:00:Z","depth":"0","parameterNumber":2,"parameterNumberName":"U-component_of_CURRENTS"},"data":[0,0,0,0,0,0,0,0,0,0,0,0,0,0,0,0,0,0,0,0,0,0,0,0,0,0,0,0,0,0,0,0,0,0,0,0,0,0,0,0,0,0,0,0,0,0,0,0,0,0,0,0,0,0,0,0,0,0,0.2478,0.2478,0,0.2486,0.2486,0.2486,0.2471,0.247,0.247,0.247,0.2455,0.2454,0.2454,0,0,0,0,0,0,0,0,0,0,0,0,0,0.2465,0.2465,0.2478,0.2478,0.2478,0.2486,0.2486,0.2486,0.2471,0.247,0.247,0.247,0.2455,0.2455,0.2454,0,0,0,0,0,0,0,0,0,0,0,0,0,0.247,0.2465,0.2478,0.2473,0.2473,0.2486,0.2486,0.2486,0.2471,0.247,0.247,0.2469,0.2455,0.2455,0.2454,0.2464,0,0,0.2454,0.2454,0,0,0,0,0,0,0,0,0.2469,0.247,0.2474,0.2474,0.2473,0.2479,0.2476,0.2478,0.2471,0.247,0.247,0.2469,0.2462,0.2461,0.2462,0.2463,0.2462,0.2454,0.2454,0.2454,0.2454,0,0,0,0,0,0,0,0.2469,0.247,0.2479,0.2474,0.2474,0.2476,0.2476,0.2476,0.2467,0.247,0.2469,0.2473,0.2461,0.2462,0.2461,0.2462,0.2454,0.2454,0.2454,0.2454,0.2506,0.2507,0,0,0,0,0,0,0.2471,0.2469,0.2479,0.248,0.2472,0.2477,0.2477,0.2476,0.2467,0.2466,0.2474,0.2473,0.2462,0.2461,0.246,0.2486,0.2454,0.2454,0.2454,0.2504,0.2506,0.2508,0,0,0,0,0,0,0.2471,0.2472,0.2479,0.2476,0.2478,0.2478,0.2477,0.2476,0.248,0.2471,0.2469,0.2479,0.2462,0.2461,0.2473,0.2485,0.2454,0.2453,0.2502,0.2505,0.2507,0.2528,0,0,0,0,0,0,0.2471,0.2472,0.2477,0.2476,0.2478,0.2496,0.2478,0.2477,0.2484,0.2483,0.2475,0.2472,0.2461,0.2474,0.2473,0.2484,0.2453,0.2501,0.2503,0.2506,0.2525,0.253,0.2535,0,0,0,0,0,0.247,0.2482,0.2477,0.2478,0.2483,0.2497,0.2498,0.2495,0.2485,0.2495,0.2491,0.2473,0.2491,0.2475,0.2474,0.2485,0.2499,0.2503,0.2506,0.2523,0.2529,0.2534,0,0,0,0,0,0,0.2484,0.2481,0.2476,0.2487,0.2495,0.2495,0.2507,0.2501,0.2505,0.2503,0.2488,0.2486,0.2504,0.2498,0.2481,0.2512,0.2494,0.2497,0.2507,0.2513,0.2518,0.2507,0.2453,0,0,0,0,0,0.2488,0.2492,0.2494,0.2505,0.251,0.2508,0.2514,0.2511,0.2514,0.2514,0.2508,0.2508,0.2517,0.2517,0.2524,0.2537,0.2547,0.2547,0.2552,0.2556,0.2549,0.2587,0.2594,0.2518,0.2518,0.2518,0,0,0.2494,0.2497,0.2498,0.2508,0.2512,0.2519,0.251,0.2524,0.2526,0.2513,0.2518,0.2525,0.2527,0.2544,0.2551,0.2538,0.2587,0.256,0.2563,0.2554,0.2591,0.2598,0.2604,0.2521,0.252,0.252,0,0,0.2513,0.2514,0.2523,0.2529,0.2541,0.2538,0.2543,0.2546,0.2546,0.2555,0.2551,0.2566,0.2571,0.2576,0.2579,0.2616,0.2615,0.2624,0.2631,0.2668,0.2674,0.2679,0.2716,0.2724,0.2621,0.2621,0.2621,0,0.2518,0.2525,0.2531,0.2543,0.2543,0.2546,0.255,0.2557,0.2562,0.2565,0.2561,0.2585,0.2585,0.2606,0.2619,0.2624,0.2647,0.2604,0.2672,0.2678,0.2683,0.2719,0.2728,0.2623,0.2622,0.2622,0.2622,0,0.2537,0.2545,0.2555,0.256,0.2566,0.2574,0.2577,0.2588,0.2585,0.2586,0.2609,0.2619,0.2629,0.264,0.2635,0.2675,0.2682,0.2676,0.2652,0.2691,0.2728,0.2737,0.2625,0.2624,0.2624,0.2623,0,0,0.2513,0.2558,0.2555,0.2556,0.2569,0.2569,0.2587,0.2594,0.2605,0.2616,0.263,0.265,0.2656,0.2661,0.2669,0.2696,0.2756,0.27,0.2701,0.2727,0.2845,0.2799,0.2805,0.2765,0.2766,0.2767,0.2861,0,0.2513,0.2538,0.2559,0.2562,0.256,0.2576,0.2593,0.2604,0.2614,0.2635,0.2652,0.2673,0.2665,0.2679,0.2705,0.2742,0.2778,0.2731,0.2811,0.2813,0.276,0.2813,0.279,0.2866,0.2869,0.2871,0.2872,0,0.2496,0.2511,0.252,0.2549,0.2552,0.2559,0.2571,0.2594,0.2633,0.2648,0.2672,0.2689,0.2727,0.272,0.2797,0.277,0.2808,0.2837,0.2841,0.2792,0.2784,0.2826,0.2882,0.2777,0.2885,0.2884,0.2883,0,0.242,0.2473,0.2474,0.2478,0.2517,0.2525,0.2552,0.2587,0.26,0.2658,0.2679,0.2724,0.2754,0.2803,0.2853,0.2835,0.2945,0.2927,0.2926,0.2924,0.2914,0.2907,0.2865,0.2992,0.2992,0.2991,0.2991,0,0.2364,0.2358,0.2446,0.242,0.2422,0.2487,0.2489,0.2527,0.2593,0.2602,0.2681,0.2691,0.2778,0.2839,0.2878,0.293,0.2968,0.2936,0.2946,0.2922,0.2915,0.2829,0.2689,0.2995,0.2994,0.2993,0.2993,0,0.2235,0.2299,0.2289,0.2351,0.2367,0.236,0.242,0.244,0.2534,0.2555,0.2577,0.2679,0.2758,0.2853,0.2947,0.296,0.2904,0.303,0.2994,0.2996,0.2851,0.2711,0.2468,0.2429,0.303,0.303,0.3029,0,0.2171,0.2163,0.22,0.2203,0.2218,0.2242,0.226,0.236,0.2385,0.2516,0.2517,0.2638,0.2676,0.2828,0.2904,0.3,0.2868,0.302,0.2963,0.284,0.2694,0.2476,0.2447,0.2978,0.2977,0.2976,0.2976,0,0.2051,0.2072,0.2073,0.208,0.209,0.2089,0.2136,0.2142,0.2271,0.232,0.2393,0.2456,0.2628,0.2724,0.2886,0.2923,0.2809,0.3003,0.2901,0.2655,0.239,0.2361,0.2916,0.297,0.297,0.2971,0.2971,0.2971,0.1985,0.1968,0.201,0.1983,0.1992,0.1978,0.1953,0.2024,0.2058,0.2156,0.2243,0.2351,0.2602,0.2809,0.2796,0.2823,0.2699,0.2798,0.2649,0.245,0.2352,0.2875,0.2911,0.2911,0.2911,0.2912,0.2912,0,0.1958,0.1957,0.1935,0.1924,0.1888,0.191,0.1909,0.1899,0.1911,0.2039,0.2116,0.236,0.2483,0.263,0.2743,0.2576,0.2434,0.2442,0.217,0.2177,0.2714,0.266,0.2611,0.2611,0.2611,0.2612,0.2612,0.2612,0.1966,0.1947,0.1914,0.1846,0.1824,0.1768,0.1741,0.1732,0.1808,0.1909,0.2041,0.2187,0.2372,0.2384,0.2296,0.2234,0.198,0.1777,0.1724,0.2141,0.2165,0.2187,0.2112,0.1949,0.1948,0.1241,0.1234,0.1229]},{"header":{"parameterUnit":"m.s-1","parameterCategory":2,"la1":30.2991,"la2":30.254,"lo1":-89.0895,"lo2":-89.0444,"dy":0.0017,"dx":0.0017,"nx":28,"ny":28,"refTime":"2025-03-14T03:00:00:Z","depth":"0","parameterNumber":3,"parameterNumberName":"V-component_of_CURRENTS"},"data":[0,0,0,0,0,0,0,0,0,0,0,0,0,0,0,0,0,0,0,0,0,0,0,0,0,0,0,0,0,0,0,0,0,0,0,0,0,0,0,0,0,0,0,0,0,0,0,0,0,0,0,0,0,0,0,0,0,0,0.064,0.0639,0,0.0551,0.055,0.0549,0.0493,0.0493,0.0493,0.0493,0.0353,0.0349,0.0346,0,0,0,0,0,0,0,0,0,0,0,0,0,0.0709,0.0709,0.064,0.0639,0.0638,0.0552,0.055,0.0549,0.0493,0.0493,0.0493,0.0493,0.0354,0.035,0.0346,0,0,0,0,0,0,0,0,0,0,0,0,0,0.0655,0.0708,0.064,0.0601,0.0596,0.0552,0.055,0.0549,0.0493,0.0493,0.0493,0.0493,0.0355,0.035,0.0345,0.0319,0,0,0.0329,0.0327,0,0,0,0,0,0,0,0,0.0658,0.0652,0.0607,0.0603,0.0598,0.0534,0.0524,0.047,0.0494,0.0531,0.0493,0.0492,0.041,0.04,0.0383,0.0312,0.0306,0.0328,0.0325,0.0323,0.0321,0,0,0,0,0,0,0,0.0662,0.0656,0.0604,0.0606,0.0601,0.057,0.0562,0.0513,0.0472,0.0528,0.0524,0.0516,0.0407,0.0388,0.0379,0.0304,0.0329,0.0324,0.0321,0.0319,0.0218,0.0218,0,0,0,0,0,0,0.0678,0.066,0.0606,0.0601,0.0629,0.0569,0.056,0.0554,0.0473,0.0461,0.0516,0.0514,0.0398,0.0386,0.0374,0.0351,0.0323,0.0318,0.0315,0.0217,0.0218,0.0219,0,0,0,0,0,0,0.068,0.0675,0.061,0.0629,0.0619,0.0569,0.0562,0.0553,0.0537,0.0465,0.0452,0.0511,0.0397,0.0381,0.034,0.0345,0.0316,0.0311,0.0217,0.0218,0.0218,0.0298,0,0,0,0,0,0,0.0683,0.0676,0.068,0.063,0.0618,0.0593,0.0562,0.0551,0.0533,0.0528,0.0456,0.0442,0.0395,0.0348,0.0335,0.0337,0.0307,0.0216,0.0217,0.0218,0.0294,0.0301,0.0307,0,0,0,0,0,0.0685,0.0696,0.068,0.0674,0.0624,0.0594,0.0585,0.0547,0.0533,0.0531,0.0484,0.0445,0.0345,0.0344,0.0328,0.0329,0.0216,0.0217,0.0218,0.0292,0.03,0.0306,0,0,0,0,0,0,0.0722,0.069,0.0672,0.067,0.0638,0.0585,0.0583,0.0555,0.0516,0.0513,0.0446,0.043,0.0396,0.0354,0.0355,0.0305,0.0275,0.0273,0.0337,0.0343,0.035,0.0372,0.0302,0,0,0,0,0,0.0735,0.0738,0.0693,0.0692,0.0682,0.0634,0.0618,0.0591,0.055,0.0533,0.0482,0.0431,0.0388,0.036,0.0315,0.0284,0.0264,0.0276,0.0282,0.0288,0.0296,0.0271,0.0276,0.0222,0.0222,0.0222,0,0,0.0745,0.0732,0.073,0.0702,0.0676,0.0667,0.0624,0.0607,0.0597,0.0523,0.0499,0.045,0.0385,0.0354,0.0335,0.0318,0.0297,0.0289,0.0294,0.03,0.0272,0.0278,0.0282,0.0223,0.0223,0.0223,0,0,0.0782,0.076,0.078,0.0757,0.073,0.0698,0.0698,0.0649,0.0628,0.0596,0.0545,0.0505,0.0433,0.0393,0.0361,0.0374,0.0332,0.0357,0.04,0.0376,0.038,0.0384,0.0387,0.039,0.0358,0.0358,0.0358,0,0.0793,0.0811,0.0779,0.0788,0.0774,0.0718,0.0725,0.0695,0.0639,0.0626,0.0602,0.0511,0.0454,0.0417,0.042,0.0388,0.0376,0.0378,0.0385,0.0388,0.039,0.0392,0.0395,0.0362,0.0361,0.0361,0.036,0,0.0845,0.0851,0.086,0.0854,0.0834,0.0829,0.0783,0.0769,0.0735,0.0698,0.0659,0.0585,0.0534,0.0507,0.0462,0.0448,0.0437,0.0399,0.0371,0.0401,0.0401,0.0402,0.0367,0.0366,0.0365,0.0364,0,0,0.087,0.0895,0.0895,0.0903,0.0866,0.0855,0.0848,0.0821,0.0826,0.0763,0.0759,0.0675,0.0636,0.0599,0.0538,0.0508,0.0513,0.0465,0.0461,0.0476,0.0482,0.0502,0.0505,0.0475,0.0475,0.0475,0.0484,0,0.0912,0.0964,0.0954,0.0973,0.0981,0.0935,0.0939,0.0906,0.0867,0.0851,0.0774,0.0743,0.067,0.065,0.0609,0.0533,0.0516,0.0516,0.0443,0.0442,0.0462,0.0506,0.0628,0.0648,0.0485,0.0485,0.0485,0,0.0954,0.0982,0.1025,0.1042,0.1043,0.1046,0.1036,0.1033,0.0994,0.0964,0.0913,0.0852,0.0794,0.0732,0.0635,0.0638,0.0575,0.0517,0.0515,0.0505,0.0463,0.0585,0.0655,0.0692,0.0487,0.0487,0.0486,0,0.0974,0.1023,0.1066,0.1063,0.1074,0.1088,0.1097,0.1069,0.1079,0.1037,0.104,0.0949,0.0919,0.0819,0.0698,0.0667,0.0605,0.0545,0.051,0.0512,0.0587,0.0595,0.0691,0.0495,0.0495,0.0495,0.0495,0,0.0993,0.1009,0.109,0.109,0.1135,0.1142,0.1178,0.116,0.1177,0.1197,0.1109,0.1104,0.0938,0.0874,0.075,0.0652,0.0649,0.0538,0.0517,0.062,0.063,0.0639,0.0589,0.0495,0.0495,0.0495,0.0495,0,0.0944,0.1008,0.1036,0.1101,0.1131,0.1148,0.122,0.1242,0.1276,0.1302,0.1299,0.123,0.1153,0.1011,0.0857,0.074,0.0642,0.0594,0.0742,0.0737,0.0716,0.0664,0.0634,0.065,0.0557,0.0557,0.0558,0,0.0918,0.0947,0.1026,0.1058,0.1076,0.1143,0.118,0.1245,0.1286,0.1375,0.1384,0.1355,0.1317,0.1132,0.0956,0.0794,0.0714,0.0758,0.0706,0.0759,0.0685,0.0615,0.0626,0.0849,0.0852,0.0854,0.0856,0,0.0857,0.0894,0.093,0.1012,0.1059,0.1119,0.1208,0.1264,0.1363,0.1429,0.1506,0.1512,0.1405,0.1316,0.1116,0.0971,0.0803,0.0797,0.0819,0.0901,0.0865,0.0858,0.0809,0.0876,0.0874,0.0873,0.0872,0.0871,0.082,0.0839,0.0936,0.0984,0.1039,0.1114,0.1172,0.1288,0.1399,0.1567,0.1599,0.173,0.172,0.148,0.1239,0.1069,0.0944,0.1008,0.0938,0.0861,0.0891,0.0895,0.0946,0.0945,0.0943,0.0942,0.0941,0,0.0829,0.0876,0.0921,0.1012,0.1052,0.109,0.1206,0.1296,0.1427,0.1671,0.1804,0.214,0.1961,0.1797,0.1557,0.1309,0.1175,0.118,0.1152,0.1149,0.1164,0.1198,0.1349,0.1349,0.1349,0.1349,0.1349,0.1349,0.0853,0.0918,0.0942,0.1031,0.1075,0.1151,0.1205,0.1342,0.1559,0.1957,0.2312,0.2589,0.2733,0.1989,0.1603,0.1473,0.1359,0.1256,0.116,0.1232,0.1213,0.1194,0.1222,0.1374,0.1374,0.1245,0.1243,0.1242]}],[{"header":{"parameterUnit":"m.s-1","parameterCategory":2,"la1":30.2991,"la2":30.254,"lo1":-89.0895,"lo2":-89.0444,"dy":0.0017,"dx":0.0017,"nx":28,"ny":28,"refTime":"2025-03-14T03:00:00:Z","depth":"2","parameterNumber":2,"parameterNumberName":"U-component_of_CURRENTS"},"data":[0,0,0,0,0,0,0,0,0,0,0,0,0,0,0,0,0,0,0,0,0,0,0,0,0,0,0,0,0,0,0,0,0,0,0,0,0,0,0,0,0,0,0,0,0,0,0,0,0,0,0,0,0,0,0,0,0,0,0.2475,0.2476,0,0.2484,0.2483,0.2483,0.2469,0.2468,0.2468,0.2468,0.2453,0.2453,0.2453,0,0,0,0,0,0,0,0,0,0,0,0,0,0.2459,0.246,0.2475,0.2476,0.2476,0.2484,0.2483,0.2483,0.2469,0.2468,0.2468,0.2467,0.2453,0.2453,0.2453,0,0,0,0,0,0,0,0,0,0,0,0,0,0.2465,0.246,0.2475,0.2471,0.2471,0.2484,0.2483,0.2483,0.2469,0.2468,0.2468,0.2467,0.2453,0.2453,0.2453,0.2462,0,0,0.2452,0.2452,0,0,0,0,0,0,0,0,0.2465,0.2465,0.2471,0.2471,0.2471,0.2476,0.2473,0.2476,0.2469,0.2467,0.2468,0.2467,0.246,0.246,0.246,0.2461,0.246,0.2452,0.2452,0.2452,0.2452,0,0,0,0,0,0,0,0.2464,0.2465,0.2477,0.2472,0.2471,0.2473,0.2473,0.2473,0.2465,0.2468,0.2467,0.2471,0.246,0.246,0.2459,0.246,0.2452,0.2452,0.2452,0.2452,0.2504,0.2505,0,0,0,0,0,0,0.2467,0.2465,0.2476,0.2477,0.2469,0.2474,0.2473,0.2473,0.2465,0.2464,0.2471,0.247,0.246,0.2459,0.2459,0.2484,0.2452,0.2452,0.2452,0.2503,0.2504,0.2506,0,0,0,0,0,0,0.2467,0.2468,0.2476,0.2473,0.2474,0.2475,0.2475,0.2474,0.2478,0.2469,0.2467,0.2477,0.246,0.2459,0.2472,0.2483,0.2452,0.2452,0.2501,0.2503,0.2505,0.2526,0,0,0,0,0,0,0.2466,0.2467,0.2473,0.2473,0.2474,0.2493,0.2475,0.2475,0.2482,0.2481,0.2473,0.2471,0.246,0.2472,0.2471,0.2482,0.2452,0.2499,0.2502,0.2505,0.2523,0.2528,0.2533,0,0,0,0,0,0.2465,0.2477,0.2473,0.2474,0.248,0.2494,0.2495,0.2492,0.2483,0.2492,0.2489,0.2471,0.2489,0.2473,0.2472,0.2483,0.2498,0.2501,0.2504,0.2521,0.2527,0.2532,0,0,0,0,0,0,0.2476,0.2477,0.2472,0.2484,0.2492,0.2492,0.2504,0.2498,0.2503,0.25,0.2486,0.2484,0.2502,0.2496,0.2479,0.251,0.2492,0.2496,0.2505,0.2511,0.2516,0.2505,0.2452,0,0,0,0,0,0.248,0.2486,0.249,0.25,0.2506,0.2505,0.2511,0.2508,0.2511,0.2512,0.2506,0.2506,0.2515,0.2516,0.2522,0.2535,0.2545,0.2545,0.255,0.2554,0.2548,0.2585,0.2592,0.2517,0.2517,0.2517,0,0,0.2484,0.249,0.2491,0.2503,0.2508,0.2516,0.2507,0.2521,0.2524,0.2511,0.2516,0.2523,0.2525,0.2542,0.2549,0.2536,0.2585,0.2558,0.2561,0.2552,0.2589,0.2596,0.2602,0.2519,0.2519,0.2518,0,0,0.2502,0.2504,0.2515,0.2523,0.2537,0.2534,0.254,0.2544,0.2543,0.2553,0.2549,0.2564,0.2569,0.2574,0.2576,0.2614,0.2612,0.2621,0.2628,0.2665,0.2671,0.2676,0.2713,0.2722,0.2619,0.2619,0.2619,0,0.2506,0.2516,0.2523,0.2539,0.2539,0.2542,0.2548,0.2555,0.256,0.2563,0.2559,0.2582,0.2582,0.2603,0.2616,0.2621,0.2645,0.2602,0.2669,0.2675,0.268,0.2716,0.2725,0.262,0.262,0.262,0.262,0,0.2526,0.2536,0.2547,0.2556,0.2563,0.2572,0.2576,0.2586,0.2583,0.2583,0.2607,0.2616,0.2626,0.2637,0.2632,0.2671,0.2679,0.2673,0.2649,0.2688,0.2725,0.2734,0.2622,0.2622,0.2621,0.2621,0,0,0.2502,0.255,0.2548,0.2551,0.2567,0.2568,0.2586,0.2593,0.2603,0.2614,0.2627,0.2647,0.2653,0.2658,0.2666,0.2693,0.2752,0.2697,0.2698,0.2724,0.2841,0.2792,0.2797,0.2761,0.2763,0.2764,0.2857,0,0.2503,0.2532,0.2554,0.256,0.256,0.2576,0.2593,0.2603,0.2613,0.2633,0.2649,0.2669,0.2662,0.2676,0.2701,0.2739,0.2774,0.2727,0.2807,0.281,0.2753,0.2805,0.2563,0.262,0.2865,0.2867,0.2868,0,0.249,0.2507,0.2518,0.2549,0.2553,0.2561,0.2572,0.2594,0.2631,0.2646,0.2669,0.2686,0.2723,0.2717,0.2793,0.2766,0.2804,0.2833,0.2837,0.2785,0.2776,0.262,0.2627,0.2883,0.2882,0.288,0.288,0,0.2415,0.2472,0.2474,0.2479,0.2519,0.2527,0.2554,0.2588,0.2601,0.2657,0.2677,0.2721,0.2751,0.28,0.2849,0.2831,0.294,0.2923,0.2919,0.2916,0.272,0.2697,0.2988,0.2988,0.2987,0.2987,0.2987,0,0.2363,0.2356,0.2446,0.2421,0.2424,0.249,0.2491,0.2529,0.2594,0.2602,0.268,0.2689,0.2775,0.2835,0.2874,0.2923,0.2964,0.2928,0.2938,0.2723,0.2701,0.2928,0.292,0.2991,0.299,0.2989,0.2988,0,0.2233,0.2298,0.2288,0.2352,0.2369,0.2362,0.2423,0.2442,0.2536,0.2556,0.2578,0.2678,0.2757,0.2849,0.2943,0.2953,0.3008,0.3021,0.2766,0.2743,0.2955,0.2947,0.3018,0.3017,0.3016,0.3016,0.3015,0,0.2167,0.216,0.22,0.2202,0.2217,0.2242,0.226,0.2362,0.2387,0.2518,0.2518,0.2638,0.2671,0.2819,0.2845,0.2927,0.3006,0.2778,0.269,0.2956,0.2959,0.2953,0.2946,0.2448,0.2443,0.2439,0.2435,0,0.2046,0.2066,0.2068,0.2077,0.2087,0.2086,0.2135,0.2141,0.2272,0.2318,0.239,0.2448,0.2574,0.2533,0.267,0.2683,0.274,0.2695,0.3042,0.2479,0.2426,0.2427,0.2438,0.2398,0.2402,0.2404,0.2406,0.2408,0.1978,0.196,0.2003,0.1976,0.1987,0.1974,0.195,0.2017,0.2049,0.2118,0.22,0.2237,0.2306,0.2366,0.2324,0.2333,0.2539,0.2471,0.248,0.2495,0.2413,0.2362,0.2307,0.231,0.2313,0.2315,0.2317,0,0.1945,0.1947,0.1925,0.1917,0.188,0.1905,0.1906,0.1884,0.1889,0.1941,0.1981,0.1865,0.186,0.1948,0.1884,0.1932,0.1875,0.188,0.1774,0.1816,0.1852,0.1732,0.1448,0.1445,0.1442,0.1439,0,0,0.1953,0.1932,0.1898,0.1834,0.1815,0.1762,0.1735,0.1702,0.172,0.1676,0.1665,0.1779,0.1896,0.1623,0.1615,0.1512,0.1641,0.1457,0.2166,0.2082,0.2113,0.2221,0.2089,0,0,0,0,0]},{"header":{"parameterUnit":"m.s-1","parameterCategory":2,"la1":30.2991,"la2":30.254,"lo1":-89.0895,"lo2":-89.0444,"dy":0.0017,"dx":0.0017,"nx":28,"ny":28,"refTime":"2025-03-14T03:00:00:Z","depth":"2","parameterNumber":3,"parameterNumberName":"V-component_of_CURRENTS"},"data":[0,0,0,0,0,0,0,0,0,0,0,0,0,0,0,0,0,0,0,0,0,0,0,0,0,0,0,0,0,0,0,0,0,0,0,0,0,0,0,0,0,0,0,0,0,0,0,0,0,0,0,0,0,0,0,0,0,0,0.0597,0.0596,0,0.0509,0.0508,0.0507,0.0451,0.0451,0.0451,0.0451,0.0312,0.0309,0.0305,0,0,0,0,0,0,0,0,0,0,0,0,0,0.0664,0.0664,0.0597,0.0596,0.0595,0.0509,0.0508,0.0506,0.0451,0.0451,0.0451,0.0451,0.0313,0.0309,0.0305,0,0,0,0,0,0,0,0,0,0,0,0,0,0.0611,0.0663,0.0598,0.0558,0.0554,0.0509,0.0508,0.0506,0.0451,0.0451,0.0451,0.0451,0.0315,0.0309,0.0304,0.0277,0,0,0.0288,0.0286,0,0,0,0,0,0,0,0,0.0614,0.0608,0.0565,0.0561,0.0556,0.0492,0.048,0.0428,0.0452,0.0489,0.0451,0.0451,0.0368,0.0359,0.0342,0.0271,0.0265,0.0288,0.0284,0.0282,0.0281,0,0,0,0,0,0,0,0.0618,0.0611,0.0561,0.0564,0.0559,0.0527,0.0519,0.047,0.043,0.0486,0.0482,0.0474,0.0365,0.0347,0.0338,0.0263,0.0288,0.0283,0.028,0.0278,0.0177,0.0178,0,0,0,0,0,0,0.0634,0.0615,0.0564,0.0559,0.0586,0.0526,0.0518,0.0512,0.0431,0.0419,0.0475,0.0472,0.0356,0.0344,0.0333,0.031,0.0282,0.0277,0.0274,0.0177,0.0177,0.0178,0,0,0,0,0,0,0.0636,0.0631,0.0567,0.0586,0.0575,0.0526,0.0519,0.051,0.0495,0.0423,0.041,0.0469,0.0356,0.034,0.0299,0.0304,0.0275,0.027,0.0176,0.0177,0.0177,0.0256,0,0,0,0,0,0,0.0638,0.0632,0.0636,0.0587,0.0575,0.0551,0.052,0.0509,0.0491,0.0487,0.0414,0.0401,0.0354,0.0307,0.0294,0.0296,0.0266,0.0175,0.0176,0.0177,0.0253,0.0259,0.0265,0,0,0,0,0,0.0641,0.0652,0.0637,0.063,0.0582,0.0551,0.0543,0.0505,0.0491,0.0489,0.0443,0.0403,0.0303,0.0303,0.0287,0.0288,0.0175,0.0176,0.0177,0.025,0.0258,0.0265,0,0,0,0,0,0,0.0675,0.0646,0.0628,0.0627,0.0595,0.0543,0.0541,0.0512,0.0474,0.0472,0.0405,0.0388,0.0355,0.0313,0.0314,0.0263,0.0234,0.0232,0.0295,0.0302,0.0308,0.0331,0.0262,0,0,0,0,0,0.0687,0.0692,0.0649,0.0648,0.0639,0.0591,0.0575,0.0549,0.0508,0.0491,0.0441,0.039,0.0346,0.0319,0.0274,0.0242,0.0222,0.0235,0.0241,0.0246,0.0254,0.0229,0.0234,0.0181,0.0181,0.0181,0,0,0.0695,0.0684,0.0682,0.0657,0.0632,0.0624,0.0581,0.0565,0.0555,0.0481,0.0457,0.0408,0.0343,0.0312,0.0293,0.0277,0.0255,0.0248,0.0253,0.0258,0.023,0.0236,0.024,0.0182,0.0182,0.0182,0,0,0.073,0.071,0.0732,0.0711,0.0685,0.0654,0.0654,0.0607,0.0586,0.0554,0.0503,0.0463,0.0391,0.035,0.0319,0.0331,0.029,0.0314,0.0357,0.0333,0.0337,0.0341,0.0344,0.0346,0.0315,0.0315,0.0315,0,0.0739,0.0761,0.0731,0.0743,0.0729,0.0675,0.0682,0.0653,0.0596,0.0583,0.0559,0.0468,0.0412,0.0374,0.0377,0.0345,0.0333,0.0335,0.0342,0.0345,0.0347,0.0349,0.0351,0.0319,0.0319,0.0318,0.0318,0,0.0792,0.08,0.081,0.0809,0.0789,0.0786,0.074,0.0726,0.0692,0.0655,0.0615,0.0542,0.0491,0.0464,0.0419,0.0404,0.0393,0.0356,0.0328,0.0357,0.0357,0.0358,0.0325,0.0323,0.0322,0.0321,0,0,0.0816,0.0845,0.0846,0.0857,0.0823,0.0812,0.0804,0.0777,0.0782,0.0718,0.0714,0.063,0.0591,0.0554,0.0494,0.0463,0.0468,0.0421,0.0417,0.0432,0.0437,0.0451,0.0453,0.0431,0.0431,0.0431,0.0439,0,0.086,0.0916,0.0908,0.0929,0.0939,0.0893,0.0896,0.0862,0.0823,0.0806,0.0728,0.0696,0.0624,0.0604,0.0564,0.0487,0.0471,0.0471,0.0399,0.0397,0.0412,0.0454,0.037,0.0372,0.044,0.044,0.044,0,0.0906,0.0936,0.0981,0.0999,0.1001,0.1005,0.0994,0.099,0.0948,0.0918,0.0867,0.0805,0.0747,0.0685,0.0588,0.0592,0.0529,0.0471,0.0469,0.0454,0.0412,0.0347,0.037,0.0441,0.0441,0.0441,0.0441,0,0.0926,0.0979,0.1023,0.1021,0.1033,0.1047,0.1056,0.1026,0.1035,0.0991,0.0994,0.0901,0.0872,0.0771,0.0651,0.0621,0.0557,0.0498,0.0459,0.046,0.036,0.0353,0.0448,0.0448,0.0448,0.0448,0.0448,0,0.0949,0.0963,0.1048,0.1049,0.1094,0.1102,0.1137,0.1118,0.1134,0.1152,0.1063,0.1057,0.0891,0.0826,0.0702,0.0601,0.0601,0.0486,0.0464,0.0389,0.0384,0.0411,0.0406,0.0449,0.0448,0.0448,0.0448,0,0.0896,0.0962,0.099,0.1058,0.109,0.1106,0.1179,0.1199,0.1234,0.1258,0.1254,0.1182,0.1105,0.0962,0.0808,0.0687,0.0573,0.0539,0.0481,0.0453,0.048,0.0479,0.0493,0.0494,0.0494,0.0495,0.0495,0,0.0867,0.0898,0.098,0.101,0.1028,0.1096,0.1133,0.1201,0.1242,0.133,0.1339,0.1308,0.1255,0.1066,0.0832,0.0652,0.0641,0.0479,0.0399,0.0508,0.0485,0.0483,0.0482,0.0301,0.0299,0.0298,0.0298,0,0.0799,0.0836,0.087,0.0956,0.1003,0.1065,0.1157,0.1212,0.1315,0.1368,0.1441,0.1434,0.1274,0.1024,0.0798,0.066,0.0496,0.0456,0.0572,0.0315,0.033,0.0306,0.031,0.0288,0.0289,0.029,0.029,0.0291,0.0754,0.0771,0.087,0.0916,0.0974,0.1054,0.1111,0.1217,0.1316,0.1388,0.1431,0.1395,0.1217,0.0858,0.0646,0.0428,0.048,0.035,0.0351,0.0353,0.0342,0.0358,0.0321,0.0322,0.0323,0.0324,0.0325,0,0.0744,0.0803,0.0843,0.0942,0.0979,0.1027,0.1145,0.12,0.1301,0.1316,0.1355,0.1137,0.0919,0.0756,0.0392,0.0216,0.0162,0.0168,0.0105,0.0116,0.0126,0.01,0.0016,0.0015,0.0014,0.0013,0,0,0.0762,0.0825,0.0845,0.0944,0.0998,0.1075,0.1126,0.1181,0.1229,0.1182,0.1141,0.1107,0.0963,0.0631,0.0386,0.0186,0.0188,0.0147,0.0408,0.037,0.0381,0.0244,0.0221,0,0,0,0,0]}],[{"header":{"parameterUnit":"m.s-1","parameterCategory":2,"la1":30.2991,"la2":30.254,"lo1":-89.0895,"lo2":-89.0444,"dy":0.0017,"dx":0.0017,"nx":28,"ny":28,"refTime":"2025-03-14T03:00:00:Z","depth":"4","parameterNumber":2,"parameterNumberName":"U-component_of_CURRENTS"},"data":[0,0,0,0,0,0,0,0,0,0,0,0,0,0,0,0,0,0,0,0,0,0,0,0,0,0,0,0,0,0,0,0,0,0,0,0,0,0,0,0,0,0,0,0,0,0,0,0,0,0,0,0,0,0,0,0,0,0,0.1248,0.1249,0,0.1317,0.1317,0.1318,0.1365,0.1365,0.1366,0.1366,0.1462,0.1464,0.1466,0,0,0,0,0,0,0,0,0,0,0,0,0,0.1166,0.1168,0.1248,0.1249,0.125,0.1317,0.1317,0.1318,0.1365,0.1365,0.1366,0.1366,0.1462,0.1464,0.1467,0,0,0,0,0,0,0,0,0,0,0,0,0,0.1214,0.1168,0.1248,0.1282,0.1286,0.1316,0.1317,0.1319,0.1365,0.1365,0.1366,0.1367,0.1461,0.1464,0.1467,0.1474,0,0,0.1477,0.1478,0,0,0,0,0,0,0,0,0.1211,0.1217,0.1276,0.128,0.1284,0.1334,0.1324,0.1372,0.1365,0.1334,0.1366,0.1367,0.1422,0.1428,0.1438,0.1479,0.1483,0.1477,0.1479,0.1481,0.1481,0,0,0,0,0,0,0,0.1208,0.1214,0.1275,0.1277,0.1282,0.1297,0.1304,0.1333,0.1373,0.1337,0.134,0.1349,0.1424,0.1435,0.1441,0.1484,0.1477,0.148,0.1482,0.1483,0.1604,0.1605,0,0,0,0,0,0,0.12,0.1211,0.1272,0.1277,0.125,0.1298,0.1306,0.1316,0.1372,0.1382,0.1349,0.1351,0.1429,0.1437,0.1444,0.1524,0.1481,0.1484,0.1485,0.1603,0.1604,0.1606,0,0,0,0,0,0,0.1198,0.1205,0.127,0.1246,0.1255,0.1299,0.131,0.1317,0.1354,0.1381,0.1391,0.1381,0.143,0.144,0.1492,0.1525,0.1485,0.1488,0.1601,0.1603,0.1605,0.164,0,0,0,0,0,0,0.1196,0.1204,0.1222,0.1246,0.1257,0.1302,0.131,0.1318,0.1357,0.1362,0.1412,0.142,0.1431,0.1487,0.1495,0.1529,0.149,0.16,0.1602,0.1604,0.1637,0.1643,0.1647,0,0,0,0,0,0.1193,0.1207,0.1222,0.1231,0.1275,0.1302,0.131,0.1341,0.1359,0.1377,0.1412,0.1419,0.1508,0.149,0.15,0.1536,0.1598,0.1601,0.1604,0.1635,0.1641,0.1647,0,0,0,0,0,0,0.1179,0.1214,0.1231,0.1256,0.1286,0.1311,0.1335,0.1355,0.1398,0.1412,0.1436,0.1446,0.1503,0.1514,0.1494,0.1577,0.1555,0.1559,0.1575,0.1581,0.1586,0.1576,0.1493,0,0,0,0,0,0.1185,0.1207,0.1239,0.1261,0.1279,0.1313,0.1334,0.1356,0.139,0.141,0.1444,0.1482,0.1518,0.1545,0.1574,0.1621,0.1624,0.165,0.1655,0.1659,0.1658,0.1692,0.17,0.1615,0.1615,0.1615,0,0,0.1183,0.1207,0.122,0.1261,0.1288,0.1314,0.1328,0.1366,0.1395,0.1414,0.1472,0.1503,0.1533,0.1585,0.1612,0.1602,0.1686,0.1663,0.1667,0.1662,0.1696,0.1704,0.1712,0.1617,0.1617,0.1616,0,0,0.118,0.1218,0.1233,0.1263,0.131,0.1331,0.1348,0.1392,0.1423,0.1476,0.1498,0.1548,0.1605,0.1632,0.1652,0.1703,0.171,0.1721,0.1746,0.178,0.1787,0.1793,0.1808,0.1816,0.1727,0.1727,0.1727,0,0.1183,0.1205,0.1241,0.1267,0.1294,0.1341,0.1364,0.1401,0.1457,0.1487,0.1501,0.1594,0.1624,0.1682,0.1704,0.1716,0.173,0.1719,0.1786,0.1793,0.1798,0.1812,0.182,0.1729,0.1729,0.1729,0.1729,0,0.1179,0.1216,0.1231,0.1278,0.1311,0.1343,0.1394,0.1438,0.1485,0.152,0.1596,0.164,0.1694,0.1718,0.1731,0.1793,0.1788,0.1785,0.1768,0.1809,0.1821,0.1828,0.1732,0.1731,0.1731,0.173,0,0,0.1148,0.1215,0.1224,0.1254,0.1324,0.1347,0.1405,0.1463,0.1505,0.1574,0.1627,0.1701,0.1734,0.1759,0.1789,0.1825,0.1883,0.183,0.1831,0.1839,0.1953,0.1843,0.184,0.1899,0.19,0.1901,0.1944,0,0.1142,0.1181,0.1218,0.1268,0.1301,0.1363,0.1408,0.1472,0.1534,0.1598,0.1664,0.1729,0.1748,0.1788,0.1828,0.1874,0.1905,0.1871,0.1916,0.1917,0.181,0.1845,0.1906,0.1949,0.1951,0.1952,0.1953,0,0.1135,0.1164,0.1208,0.1278,0.1296,0.1333,0.1418,0.1464,0.1562,0.1612,0.1689,0.1744,0.1827,0.1829,0.1923,0.1905,0.1931,0.1955,0.1958,0.1845,0.182,0.1901,0.1966,0.1965,0.1964,0.1963,0.1962,0,0.1108,0.1164,0.1199,0.1225,0.1304,0.134,0.1383,0.1475,0.1519,0.163,0.1676,0.1775,0.184,0.1892,0.196,0.1951,0.2044,0.2033,0.1952,0.1944,0.2015,0.2007,0.2082,0.2082,0.2081,0.2081,0.2081,0,0.1102,0.1139,0.1191,0.122,0.1263,0.1323,0.1381,0.1447,0.1526,0.1579,0.1683,0.1736,0.1863,0.1934,0.1971,0.1984,0.2056,0.1955,0.1949,0.2028,0.2022,0.202,0.2012,0.2083,0.2083,0.2082,0.2082,0,0.1097,0.1133,0.1183,0.1246,0.1266,0.1305,0.1373,0.1411,0.1492,0.1563,0.1602,0.1733,0.1825,0.192,0.2018,0.1989,0.2016,0.1999,0.2076,0.2075,0.1887,0.1881,0.1901,0.1897,0.1894,0.1892,0.189,0,0.1098,0.1121,0.1191,0.1214,0.1252,0.1298,0.1333,0.1405,0.144,0.1545,0.1576,0.1695,0.1777,0.1822,0.1924,0.1977,0.1965,0.1959,0.1917,0.1876,0.187,0.1868,0.1866,0.1885,0.1884,0.1883,0.1883,0,0.1091,0.1127,0.116,0.12,0.1242,0.1271,0.1318,0.1322,0.1402,0.1482,0.1522,0.1574,0.1671,0.1757,0.1817,0.1849,0.1953,0.1928,0.1934,0.1894,0.1858,0.1854,0.1855,0.1872,0.1874,0.1875,0.1875,0,0.108,0.1096,0.1131,0.1158,0.1215,0.1223,0.1251,0.1271,0.1302,0.1404,0.1417,0.1537,0.1649,0.1689,0.1739,0.177,0.1749,0.1702,0.1719,0.1732,0.166,0.1588,0.1514,0,0,0,0,0,0.1043,0.1038,0.107,0.1093,0.1151,0.1168,0.123,0.1252,0.132,0.132,0.1353,0.1431,0.1498,0.1565,0.1568,0.1679,0.1765,0.1675,0.1721,0.1815,0.1827,0.1761,0,0,0,0,0,0,0.1013,0.1037,0.1041,0.1028,0.1027,0.1069,0.1104,0.115,0.1144,0.1227,0.1281,0.1349,0.145,0.1484,0.154,0.1562,0.1565,0.175,0.1747,0.1809,0.182,0.1829,0.1765,0,0,0,0,0]},{"header":{"parameterUnit":"m.s-1","parameterCategory":2,"la1":30.2991,"la2":30.254,"lo1":-89.0895,"lo2":-89.0444,"dy":0.0017,"dx":0.0017,"nx":28,"ny":28,"refTime":"2025-03-14T03:00:00:Z","depth":"4","parameterNumber":3,"parameterNumberName":"V-component_of_CURRENTS"},"data":[0,0,0,0,0,0,0,0,0,0,0,0,0,0,0,0,0,0,0,0,0,0,0,0,0,0,0,0,0,0,0,0,0,0,0,0,0,0,0,0,0,0,0,0,0,0,0,0,0,0,0,0,0,0,0,0,0,0,-0.0203,-0.0203,0,-0.0235,-0.0235,-0.0235,-0.027,-0.027,-0.0271,-0.0271,-0.0308,-0.0308,-0.0309,0,0,0,0,0,0,0,0,0,0,0,0,0,-0.0203,-0.0203,-0.0203,-0.0203,-0.0204,-0.0235,-0.0235,-0.0235,-0.027,-0.027,-0.0271,-0.0271,-0.0307,-0.0308,-0.0309,0,0,0,0,0,0,0,0,0,0,0,0,0,-0.0216,-0.0203,-0.0203,-0.0224,-0.0226,-0.0234,-0.0235,-0.0236,-0.027,-0.027,-0.0271,-0.0272,-0.0307,-0.0308,-0.0309,-0.03,0,0,-0.0311,-0.0312,0,0,0,0,0,0,0,0,-0.0215,-0.0216,-0.0221,-0.0223,-0.0225,-0.0249,-0.0249,-0.0257,-0.0269,-0.0254,-0.0271,-0.0272,-0.0288,-0.029,-0.0295,-0.0302,-0.0304,-0.0311,-0.0312,-0.0312,-0.0313,0,0,0,0,0,0,0,-0.0214,-0.0215,-0.0216,-0.0221,-0.0224,-0.0243,-0.0245,-0.0251,-0.0267,-0.0255,-0.0258,-0.026,-0.0289,-0.0294,-0.0296,-0.0304,-0.0311,-0.0312,-0.0313,-0.0313,-0.0322,-0.0322,0,0,0,0,0,0,-0.0207,-0.0214,-0.0215,-0.0217,-0.0221,-0.0242,-0.0245,-0.0241,-0.0267,-0.0271,-0.026,-0.0262,-0.0292,-0.0295,-0.0298,-0.0289,-0.0312,-0.0313,-0.0314,-0.0322,-0.0322,-0.0322,0,0,0,0,0,0,-0.0207,-0.0206,-0.0214,-0.0216,-0.0219,-0.0241,-0.0236,-0.0241,-0.0249,-0.027,-0.0275,-0.0263,-0.0293,-0.0296,-0.0304,-0.0291,-0.0313,-0.0314,-0.0323,-0.0322,-0.0322,-0.0272,0,0,0,0,0,0,-0.0206,-0.0206,-0.0204,-0.0215,-0.0218,-0.0217,-0.0236,-0.0241,-0.0249,-0.0252,-0.0274,-0.0278,-0.0294,-0.0303,-0.0305,-0.0293,-0.0315,-0.0323,-0.0323,-0.0322,-0.0274,-0.027,-0.0267,0,0,0,0,0,-0.0206,-0.0203,-0.0204,-0.0204,-0.0213,-0.0217,-0.022,-0.0239,-0.0248,-0.0249,-0.0265,-0.0278,-0.0301,-0.0303,-0.0306,-0.0293,-0.0323,-0.0323,-0.0322,-0.0276,-0.0271,-0.0267,0,0,0,0,0,0,-0.0214,-0.0207,-0.0208,-0.0205,-0.0208,-0.0223,-0.0229,-0.0235,-0.0248,-0.0253,-0.0273,-0.0278,-0.0281,-0.0294,-0.0296,-0.0296,-0.0315,-0.0315,-0.0279,-0.0274,-0.0271,-0.0261,-0.0316,0,0,0,0,0,-0.021,-0.0202,-0.0201,-0.0202,-0.02,-0.0211,-0.0216,-0.0224,-0.0236,-0.0243,-0.0256,-0.0271,-0.0279,-0.0283,-0.0295,-0.0292,-0.0308,-0.0287,-0.0283,-0.028,-0.0275,-0.029,-0.0287,-0.032,-0.032,-0.032,0,0,-0.0217,-0.0211,-0.021,-0.0203,-0.0208,-0.0202,-0.0217,-0.0221,-0.0215,-0.0243,-0.0244,-0.0258,-0.0276,-0.0276,-0.0278,-0.0285,-0.028,-0.0279,-0.0276,-0.0273,-0.0289,-0.0286,-0.0283,-0.032,-0.032,-0.032,0,0,-0.0226,-0.0216,-0.0211,-0.0204,-0.0202,-0.0201,-0.0198,-0.0203,-0.0205,-0.0203,-0.0223,-0.0227,-0.0241,-0.0248,-0.0254,-0.0236,-0.0261,-0.0243,-0.0212,-0.0227,-0.0224,-0.0222,-0.0238,-0.0238,-0.0239,-0.0238,-0.0238,0,-0.0236,-0.0223,-0.0214,-0.0203,-0.0197,-0.0196,-0.0187,-0.0184,-0.0192,-0.0187,-0.0199,-0.0212,-0.0226,-0.022,-0.0215,-0.0226,-0.0243,-0.0225,-0.0221,-0.0219,-0.0218,-0.0235,-0.0235,-0.0236,-0.0236,-0.0236,-0.0237,0,-0.0236,-0.0223,-0.022,-0.0198,-0.0189,-0.0182,-0.0168,-0.0159,-0.0157,-0.0155,-0.0149,-0.0166,-0.0173,-0.0177,-0.0189,-0.0182,-0.02,-0.0215,-0.0229,-0.0211,-0.0231,-0.0232,-0.0232,-0.0233,-0.0234,-0.0235,0,0,-0.0249,-0.0225,-0.0222,-0.0206,-0.0182,-0.0172,-0.0151,-0.013,-0.0115,-0.0115,-0.0099,-0.0108,-0.0115,-0.0122,-0.0137,-0.0145,-0.0148,-0.0171,-0.0173,-0.0182,-0.0183,-0.017,-0.017,-0.0164,-0.0164,-0.0164,-0.0201,0,-0.0249,-0.0228,-0.0217,-0.0191,-0.0167,-0.0152,-0.0132,-0.0111,-0.0097,-0.0079,-0.008,-0.0075,-0.0094,-0.0095,-0.0104,-0.0134,-0.0149,-0.0136,-0.0204,-0.0206,-0.0192,-0.017,-0.0164,-0.0202,-0.0202,-0.0202,-0.0203,0,-0.023,-0.0218,-0.0193,-0.0164,-0.0156,-0.0144,-0.01,-0.0086,-0.0056,-0.0046,-0.0033,-0.0036,-0.0032,-0.0059,-0.0095,-0.0087,-0.0131,-0.016,-0.0162,-0.0167,-0.0194,-0.0226,-0.0205,-0.0205,-0.0205,-0.0204,-0.0204,0,-0.0199,-0.019,-0.0168,-0.0156,-0.0128,-0.0117,-0.0109,-0.0076,-0.0052,-0.0024,-0.0004,-0.0005,0.0,-0.0044,-0.0089,-0.0096,-0.0139,-0.0159,-0.0191,-0.0192,-0.0216,-0.0218,-0.0198,-0.0198,-0.0198,-0.0198,-0.0198,0,-0.0161,-0.0136,-0.0158,-0.0131,-0.0103,-0.0104,-0.0068,-0.0049,-0.0031,0.0015,0.0009,0.0044,0.0003,-0.0017,-0.0076,-0.0125,-0.0131,-0.0178,-0.0195,-0.0195,-0.0194,-0.0217,-0.0219,-0.0199,-0.0199,-0.0199,-0.0199,0,-0.0083,-0.0098,-0.0058,-0.0065,-0.007,-0.0039,-0.0033,0.0001,-0.0005,0.0054,0.0067,0.0082,0.0068,0.0013,-0.0052,-0.01,-0.0159,-0.0187,-0.0176,-0.0193,-0.0209,-0.0207,-0.0216,-0.0216,-0.0216,-0.0216,-0.0215,0,-0.004,-0.0021,-0.0006,0.0015,0.0019,0.0032,0.0058,0.0044,0.0076,0.0091,0.0134,0.0126,0.0134,0.0066,-0.0016,-0.0124,-0.0149,-0.0192,-0.0201,-0.0192,-0.0208,-0.0207,-0.0207,-0.0215,-0.0215,-0.0215,-0.0215,0,0.0027,0.0035,0.0059,0.0086,0.0116,0.0156,0.0167,0.0185,0.0184,0.0184,0.0222,0.0187,0.017,0.0106,0.0017,-0.0068,-0.0164,-0.019,-0.0191,-0.02,-0.0191,-0.0207,-0.0206,-0.0214,-0.0214,-0.0214,-0.0214,0,0.0062,0.0094,0.0093,0.0135,0.0188,0.0238,0.0248,0.0264,0.0276,0.0276,0.0298,0.0257,0.0239,0.0134,0.0053,-0.0023,-0.0051,-0.009,-0.0097,-0.01,-0.0058,-0.0029,-0.0007,0,0,0,0,0,0.006,0.0073,0.0118,0.0156,0.0227,0.0242,0.0298,0.03,0.0299,0.0352,0.0312,0.0302,0.0205,0.0163,0.0093,0.003,-0.0089,-0.006,-0.0143,-0.0209,-0.021,-0.0181,0,0,0,0,0,0,0.0049,0.0073,0.0103,0.0157,0.0191,0.025,0.0298,0.0311,0.0324,0.0327,0.0294,0.0264,0.018,0.0245,0.0085,0.0058,-0.0009,-0.0107,-0.0109,-0.0209,-0.021,-0.021,-0.018,0,0,0,0,0]}]]